• In Latvia
  • List of Countries
  • For 7 days
  • Water Temperature
  • Satellite Maps
  • Weather Map
  • Weather Widgets
  • user-avatar
    Login

    Hourly Weather Solden

    Today, 24 May, Wednesday

    Time Temperature Precipitation Wind Pressure Humidity
    00:00 +3°C° 0 mm 2 mps 584 mmHg 89%
    01:00 +4°C° 0 mm 2 mps 585 mmHg 88%
    02:00 +4°C° 0 mm 2 mps 585 mmHg 89%
    03:00 +3°C° 0 mm 2 mps 584 mmHg 90%
    04:00 +2°C° 0 mm 2 mps 584 mmHg 91%
    05:00 +4°C° 0 mm 2 mps 584 mmHg 89%
    06:00 +5°C° 0 mm 2 mps 585 mmHg 86%
    07:00 +7°C° 0 mm 2 mps 586 mmHg 82%
    08:00 +8°C° 0.1 mm 2 mps 587 mmHg 74%
    09:00 +11°C° 0.1 mm 1 mps 588 mmHg 67%
    10:00 +12°C° 0.1 mm 1 mps 588 mmHg 59%
    11:00 +13°C° 0.1 mm 2 mps 588 mmHg 56%
    12:00 +13°C° 0.1 mm 2 mps 588 mmHg 54%
    13:00 +14°C° 0.1 mm 2 mps 589 mmHg 51%
    14:00 +13°C° 0.1 mm 2 mps 588 mmHg 52%
    15:00 +13°C° 0.1 mm 2 mps 588 mmHg 52%
    16:00 +12°C° 0.1 mm 3 mps 587 mmHg 53%
    17:00 +10°C° 0.1 mm 2 mps 587 mmHg 60%
    18:00 +9°C° 0.1 mm 2 mps 586 mmHg 68%
    19:00 +7°C° 0.1 mm 2 mps 585 mmHg 75%
    20:00 +6°C° 0.1 mm 2 mps 585 mmHg 79%
    21:00 +4°C° 0.1 mm 2 mps 584 mmHg 82%
    22:00 +3°C° 0.1 mm 2 mps 584 mmHg 86%
    23:00 +3°C° 0.4 mm 2 mps 584 mmHg 87%

    Tomorrow, 25 May, Thursday

    Time Temperature Precipitation Wind Pressure Humidity
    00:00 +3°C° 0.4 mm 2 mps 583 mmHg 88%
    01:00 +3°C° 0.4 mm 2 mps 583 mmHg 88%
    02:00 +3°C° 0.3 mm 2 mps 583 mmHg 88%
    03:00 +3°C° 0.3 mm 2 mps 583 mmHg 88%
    04:00 +3°C° 0.3 mm 2 mps 583 mmHg 88%
    05:00 +4°C° 0 mm 2 mps 583 mmHg 85%
    06:00 +4°C° 0 mm 2 mps 584 mmHg 83%
    07:00 +5°C° 0 mm 2 mps 585 mmHg 80%
    08:00 +7°C° 0 mm 2 mps 585 mmHg 73%
    09:00 +8°C° 0 mm 2 mps 586 mmHg 65%
    10:00 +10°C° 0 mm 2 mps 587 mmHg 57%
    11:00 +12°C° 0 mm 2 mps 587 mmHg 54%
    12:00 +13°C° 0 mm 2 mps 588 mmHg 51%
    13:00 +14°C° 0 mm 2 mps 588 mmHg 47%
    14:00 +13°C° 0.1 mm 2 mps 588 mmHg 49%
    15:00 +13°C° 0.1 mm 2 mps 588 mmHg 51%
    16:00 +13°C° 0.1 mm 2 mps 587 mmHg 52%
    17:00 +10°C° 0 mm 2 mps 586 mmHg 62%
    18:00 +9°C° 0 mm 2 mps 586 mmHg 72%
    19:00 +8°C° 0 mm 1 mps 585 mmHg 82%
    20:00 +7°C° 0 mm 1 mps 585 mmHg 86%
    21:00 +5°C° 0 mm 1 mps 584 mmHg 90%
    22:00 +4°C° 0 mm 1 mps 584 mmHg 95%
    23:00 +3°C° 0 mm 1 mps 583 mmHg 94%

    Day after tomorrow, 26 May, Friday

    Time Temperature Precipitation Wind Pressure Humidity
    00:00 +3°C° 0 mm 1 mps 583 mmHg 93%
    01:00 +2°C° 0 mm 1 mps 583 mmHg 93%
    02:00 +1°C° 0 mm 1 mps 582 mmHg 92%
    03:00 +1°C° 0 mm 1 mps 582 mmHg 90%
    04:00 0°C° 0 mm 1 mps 582 mmHg 89%
    05:00 +3°C° 0 mm 1 mps 583 mmHg 80%
    06:00 +5°C° 0 mm 1 mps 584 mmHg 71%
    07:00 +7°C° 0 mm 1 mps 585 mmHg 62%
    08:00 +9°C° 0 mm 1 mps 586 mmHg 56%
    09:00 +11°C° 0 mm 1 mps 587 mmHg 49%
    10:00 +13°C° 0 mm 2 mps 588 mmHg 43%
    11:00 +13°C° 0 mm 2 mps 588 mmHg 42%
    12:00 +14°C° 0 mm 2 mps 588 mmHg 41%
    13:00 +15°C° 0 mm 2 mps 588 mmHg 41%
    14:00 +15°C° 0 mm 2 mps 588 mmHg 43%
    15:00 +14°C° 0 mm 2 mps 587 mmHg 46%
    16:00 +14°C° 0 mm 2 mps 587 mmHg 49%
    17:00 +12°C° 0 mm 2 mps 586 mmHg 59%
    18:00 +11°C° 0 mm 1 mps 586 mmHg 70%
    19:00 +9°C° 0 mm 1 mps 585 mmHg 81%
    20:00 +7°C° 0 mm 1 mps 584 mmHg 86%
    21:00 +4°C° 0 mm 1 mps 583 mmHg 91%
    22:00 +1°C° 0 mm 0 mps 582 mmHg 97%
    23:00 +1°C° 0 mm 0 mps 583 mmHg 97%

    27 May, Saturday

    Time Temperature Precipitation Wind Pressure Humidity
    00:00 +2°C° 0 mm 0 mps 583 mmHg 97%
    01:00 +3°C° 0 mm 1 mps 583 mmHg 97%
    02:00 +3°C° 0 mm 1 mps 583 mmHg 97%
    03:00 +3°C° 0 mm 1 mps 583 mmHg 97%
    04:00 +3°C° 0 mm 1 mps 583 mmHg 97%
    05:00 +5°C° 0 mm 1 mps 584 mmHg 91%
    06:00 +6°C° 0 mm 0 mps 585 mmHg 86%
    07:00 +8°C° 0 mm 0 mps 586 mmHg 80%
    08:00 +11°C° 0 mm 1 mps 587 mmHg 70%
    09:00 +12°C° 0 mm 1 mps 588 mmHg 61%
    10:00 +14°C° 0 mm 1 mps 589 mmHg 52%
    11:00 +15°C° 0 mm 1 mps 589 mmHg 50%
    12:00 +16°C° 0 mm 2 mps 590 mmHg 48%
    13:00 +16°C° 0 mm 2 mps 590 mmHg 47%
    14:00 +16°C° 0.1 mm 2 mps 589 mmHg 51%
    15:00 +15°C° 0.1 mm 2 mps 589 mmHg 55%
    16:00 +15°C° 0.1 mm 2 mps 589 mmHg 58%
    17:00 +13°C° 0.3 mm 2 mps 588 mmHg 68%
    18:00 +12°C° 0.3 mm 1 mps 588 mmHg 77%
    19:00 +10°C° 0.3 mm 1 mps 587 mmHg 86%
    20:00 +9°C° 0 mm 1 mps 587 mmHg 90%
    21:00 +7°C° 0 mm 1 mps 586 mmHg 93%
    22:00 +5°C° 0 mm 1 mps 586 mmHg 97%
    23:00 +5°C° 0 mm 1 mps 586 mmHg 97%

    28 May, Sunday

    Time Temperature Precipitation Wind Pressure Humidity
    00:00 +5°C° 0 mm 1 mps 586 mmHg 97%
    01:00 +5°C° 0 mm 1 mps 586 mmHg 98%
    02:00 +5°C° 0 mm 1 mps 586 mmHg 98%
    03:00 +5°C° 0 mm 1 mps 585 mmHg 98%
    04:00 +5°C° 0 mm 1 mps 585 mmHg 98%
    05:00 +6°C° 0 mm 1 mps 586 mmHg 93%
    06:00 +8°C° 0 mm 1 mps 587 mmHg 89%
    07:00 +9°C° 0 mm 1 mps 588 mmHg 85%
    08:00 +11°C° 0 mm 1 mps 589 mmHg 76%
    09:00 +13°C° 0 mm 1 mps 590 mmHg 67%
    10:00 +15°C° 0 mm 1 mps 591 mmHg 57%
    11:00 +15°C° 0 mm 1 mps 591 mmHg 55%
    12:00 +16°C° 0 mm 1 mps 591 mmHg 52%
    13:00 +17°C° 0 mm 2 mps 591 mmHg 50%
    14:00 +16°C° 0.2 mm 2 mps 591 mmHg 54%
    15:00 +16°C° 0.2 mm 2 mps 590 mmHg 59%
    16:00 +15°C° 0.2 mm 2 mps 589 mmHg 63%
    17:00 +14°C° 0.2 mm 2 mps 589 mmHg 71%
    18:00 +12°C° 0.2 mm 1 mps 588 mmHg 79%
    19:00 +11°C° 0.2 mm 1 mps 588 mmHg 87%
    20:00 +10°C° 0 mm 1 mps 587 mmHg 90%
    21:00 +8°C° 0 mm 1 mps 587 mmHg 94%
    22:00 +7°C° 0 mm 1 mps 587 mmHg 97%
    23:00 +7°C° 0 mm 1 mps 586 mmHg 98%

    29 May, Monday

    Time Temperature Precipitation Wind Pressure Humidity
    00:00 +7°C° 0 mm 1 mps 586 mmHg 98%
    01:00 +7°C° 0 mm 1 mps 586 mmHg 98%
    02:00 +6°C° 0 mm 1 mps 586 mmHg 98%
    03:00 +6°C° 0 mm 1 mps 586 mmHg 98%
    04:00 +6°C° 0 mm 1 mps 585 mmHg 98%
    05:00 +7°C° 0 mm 1 mps 586 mmHg 94%
    06:00 +8°C° 0 mm 1 mps 586 mmHg 90%
    07:00 +10°C° 0 mm 1 mps 587 mmHg 87%
    08:00 +11°C° 0 mm 1 mps 588 mmHg 79%
    09:00 +13°C° 0 mm 1 mps 588 mmHg 71%
    10:00 +14°C° 0 mm 1 mps 589 mmHg 63%
    11:00 +15°C° 0.2 mm 2 mps 589 mmHg 62%
    12:00 +15°C° 0.2 mm 2 mps 589 mmHg 61%
    13:00 +16°C° 0.2 mm 2 mps 589 mmHg 60%
    14:00 +15°C° 0.5 mm 2 mps 588 mmHg 64%
    15:00 +15°C° 0.5 mm 2 mps 588 mmHg 67%
    16:00 +14°C° 0.5 mm 2 mps 587 mmHg 70%
    17:00 +13°C° 0.2 mm 2 mps 587 mmHg 76%
    18:00 +12°C° 0.2 mm 2 mps 586 mmHg 82%
    19:00 +11°C° 0.2 mm 1 mps 586 mmHg 88%
    20:00 +9°C° 0 mm 1 mps 585 mmHg 91%
    21:00 +8°C° 0 mm 1 mps 585 mmHg 94%
    22:00 +7°C° 0 mm 1 mps 584 mmHg 97%
    23:00 +6°C° 0 mm 1 mps 584 mmHg 97%
    Show more